(849) Ara
ephemeris date magn radius delta ra dec elong phase
Today18 Jun 202611.92.519 AU1.613 AU19h14m+02°52'145.8°13.1°
Opposition8 Jul 202611.82.515 AU1.569 AU18h58m+04°55'152.5°10.8°
(849) Ara - 2026-06-18
astro.vanbuitenen.nl


 
-1 year
-1 month
-1 day
Now
+1 day
+1 month
+1 year

The interactive orbit chart above shows the body's path through the solar system and its position at the given date. Green and blue lines are shown perpendicular to the ecliptic plane: Green if the path is above the ecliptic plane, blue if it is below. (Left-click and drag to rotate the view; Right-click and drag to move the view; Use scroll wheel to zoom in our out.)

The orbital elements of Ara are:

            e (Eccentricity)                : 0.2009581
            a (Semimajor axis)              : 3.1466937
            i (Inclination)                 : 19.53345
            Ω (Longitude of ascending node) : 228.27214
            ω (Argument of perihelion)      : 62.55516
            M (Mean anomaly)                : 352.84553
            Epoch                           : 2026 Jun 09

            L (Longitude of perihelion)     : 289.41476
            B (Latitude of perihelion)      : 17.26112
            P (Orbital period in years)     : 5.58            
        

The light curve chart below shows the estimated development of the minor planet's magnitude.


The all-sky chart below shows the path of the minor planet over the same period as the light curve. The current position is marked yellow.





The following chart shows the path of the minor planet in the next few days. The field of view is optimized for (~10x50) binoculars and finderscopes.




Ephemerides:
Date       Time       RA (2000)    DEC (2000)    delta   radius  elong  phase   PA    magn
2026-06-18 00:00 UT   19 14 08.8   +02 52 05     1.613    2.519  145.8   13.1   219   11.9 
2026-06-18 16:20 UT   19 13 42.9   +02 57 47     1.610    2.519  146.3   12.9   217   11.9 
2026-06-19 00:00 UT   19 13 30.6   +03 00 25     1.609    2.519  146.5   12.9   217   11.9 
2026-06-20 00:00 UT   19 12 51.4   +03 08 33     1.604    2.518  147.0   12.7   215   11.9 
2026-06-21 00:00 UT   19 12 11.3   +03 16 28     1.601    2.518  147.6   12.5   214   11.9 
2026-06-22 00:00 UT   19 11 30.3   +03 24 09     1.597    2.518  148.1   12.3   212   11.9 
2026-06-23 00:00 UT   19 10 48.5   +03 31 37     1.593    2.518  148.7   12.1   210   11.9 
2026-06-24 00:00 UT   19 10 05.9   +03 38 51     1.590    2.517  149.2   11.9   208   11.9 
2026-06-25 00:00 UT   19 09 22.6   +03 45 50     1.587    2.517  149.6   11.8   206   11.9 
2026-06-26 00:00 UT   19 08 38.6   +03 52 36     1.585    2.517  150.1   11.6   204   11.9 
2026-06-27 00:00 UT   19 07 54.0   +03 59 07     1.582    2.517  150.5   11.5   202   11.8 
2026-06-28 00:00 UT   19 07 08.8   +04 05 23     1.580    2.517  150.8   11.4   200   11.8 
2026-06-29 00:00 UT   19 06 23.2   +04 11 23     1.578    2.516  151.2   11.2   197   11.8 
2026-06-30 00:00 UT   19 05 37.0   +04 17 09     1.576    2.516  151.5   11.1   195   11.8 
2026-07-01 00:00 UT   19 04 50.5   +04 22 39     1.574    2.516  151.7   11.0   193   11.8 
2026-07-02 00:00 UT   19 04 03.6   +04 27 54     1.573    2.516  152.0   10.9   191   11.8 
2026-07-03 00:00 UT   19 03 16.4   +04 32 52     1.571    2.516  152.2   10.9   188   11.8 
2026-07-04 00:00 UT   19 02 29.0   +04 37 35     1.571    2.515  152.3   10.8   186   11.8 
2026-07-05 00:00 UT   19 01 41.4   +04 42 02     1.570    2.515  152.4   10.8   183   11.8 
2026-07-06 00:00 UT   19 00 53.6   +04 46 12     1.569    2.515  152.5   10.8   181   11.8 
2026-07-07 00:00 UT   19 00 05.8   +04 50 06     1.569    2.515  152.5   10.8   178   11.8 
2026-07-08 00:00 UT   18 59 18.0   +04 53 44     1.569    2.515  152.5   10.8   176   11.8 
2026-07-09 00:00 UT   18 58 30.3   +04 57 05     1.569    2.515  152.4   10.8   174   11.8 
2026-07-10 00:00 UT   18 57 42.7   +05 00 10     1.570    2.515  152.4   10.8   171   11.8 
2026-07-11 00:00 UT   18 56 55.2   +05 02 59     1.570    2.515  152.2   10.9   169   11.8 
2026-07-12 00:00 UT   18 56 08.0   +05 05 30     1.571    2.515  152.0   10.9   166   11.8 
2026-07-13 00:00 UT   18 55 21.1   +05 07 45     1.572    2.515  151.8   11.0   164   11.8 
2026-07-14 00:00 UT   18 54 34.6   +05 09 44     1.574    2.514  151.6   11.1   162   11.8 
2026-07-15 00:00 UT   18 53 48.5   +05 11 26     1.575    2.514  151.3   11.2   159   11.8 
2026-07-16 00:00 UT   18 53 02.9   +05 12 53     1.577    2.514  151.0   11.3   157   11.8 
2026-07-17 00:00 UT   18 52 17.9   +05 14 03     1.579    2.514  150.6   11.4   155   11.8 
2026-07-18 00:00 UT   18 51 33.5   +05 14 57     1.581    2.514  150.2   11.6   153   11.8 


    Terminology:
            
    delta:  distance between minor planet and earth in AU
    radius: distance between minor planet and sun in AU
    magn:   magnitude (brightness) estimate    
    ra:     right ascension in hours (24h = 360deg)
    dec:    declination in degrees
    elong:  elongation in degrees (angle sun-earth-minor planet)    
    phase:  phase angle in degrees (angle sun-minor planet-earth)        
    AU:     Astronomical Unit (mean distance between earth and sun: 149597870.7 km
    

Orbital elements provided by the MPC (Minor Planet Center).
Calculations by a modified version of AAPlus, a C# implementation of the AA+ project by PJ Naughter from the algorithms presented in the book "Astronomical Algorithms" by Jean Meeus.
NGC2000 dso catalog and star labels from VizieR as provided by the Strasbourg astronomical Data Center.
Tycho2 catalog from the ESO archive.